{"data":{"norad_id":37781,"epoch":"2026-05-25T04:24:11.382912Z","epoch_age_seconds":56268,"freshness":"FRESH","line1":"1 37781U 11043A   26145.18346508  .00000229  00000+0  28585-3 0  9991","line2":"2 37781  99.3404 148.3610 0006889 132.2360 227.9375 13.74975927743494","mean_motion":13.74975927,"eccentricity":0.0006889,"inclination_deg":99.3404,"raan_deg":148.361,"arg_perigee_deg":132.236,"mean_anomaly_deg":227.9375,"bstar":0.00028585,"rev_number":74349,"period_min":104.72910628638,"perigee_km":976.69047321597,"apogee_km":986.83094027633,"semimajor_km":7359.8977067462,"source":"CELESTRAK","updated_at":"2026-05-25T13:38:12.779070Z"}}